Terminal Aerodrome Forecast
Issued by NWS Melbourne, FL

Home | Current Version | Previous Version | Text Only | Print | Product List | Glossary On
Versions: 1 2 3 4 5 6 7 8 9 10 11 12 13 14 15 16
000
FTUS42 KMLB 240500
TAFDAB
TAF
KDAB 240532Z 2406/2506 VRB02KT P6SM SKC
      TEMPO 2409/2412 5SM BR SCT007
     FM241500 12005KT P6SM FEW030
     FM241800 11010KT P6SM FEW040=

USA.gov is the U.S. government's official web portal to all federal, state and local government web resources and services.